RH
79 84 91 90 95 94 99 88 94 97 92 96 98 100 99 99 97 98 98 97 98 98 99 94 89 87 84 83 90 97 98 92 80 80 86 92 95 94 96 90 93 92 94
68 79 94 90 94 95 94 91 94 90 90 95 97 99 99 98 99 97 90 87 91 89 90 92 93 94 96 97 92 87 79 80 80 80 80 85 88 95 95 93 90 96 97
73 81 87 88 90 91 98 90 88 71 75 86 96 99 98 100 98 95 90 90 86 86 86 85 86 87 81 71 66 79 81 69 69 82 82 84 87 94 94 88 90 89 97
81 91 88 90 89 90 92 90 80 71 93 96 98 98 99 97 93 90 89 89 89 90 89 88 86 83 81 72 57 65 70 73 80 82 74 71 81 93 94 94 95 100 97
96 96 90 89 89 88 89 86 74 90 97 99 99 99 95 92 88 90 90 91 92 92 92 89 91 92 93 87 78 75 61 75 81 70 68 66 78 91 94 95 95 99 98
99 98 91 90 89 90 88 87 99 100 99 100 99 94 90 88 88 90 92 94 94 92 92 89 92 94 83 90 80 82 61 61 66 65 61 71 87 98 97 98 94 94 98
99 99 94 90 90 89 82 94 99 99 100 99 95 92 87 89 91 92 93 94 91 91 88 90 90 95 94 92 89 58 54 57 54 61 89 94 96 96 96 96 96 96 95
100 98 95 92 90 74 87 98 93 99 100 97 92 89 89 91 92 92 92 91 90 87 85 88 90 94 95 96 77 78 81 83 90 90 92 88 83 89 90 95 95 92 84
99 96 95 92 84 93 96 86 93 100 96 93 91 90 92 93 93 91 92 89 88 83 88 88 95 97 100 90 81 79 78 78 76 82 89 88 86 90 88 88 84 80 84
92 90 94 97 99 96 84 92 98 95 90 90 92 92 93 92 92 91 88 86 83 84 88 89 96 100 92 78 75 74 73 71 72 80 86 89 93 91 85 85 75 83 84
91 90 94 100 100 94 87 96 94 91 89 93 92 93 89 88 88 87 80 82 81 88 94 96 98 81 69 66 66 70 70 73 74 82 87 88 89 82 80 80 82 83 84
96 89 98 100 100 90 94 95 93 91 94 92 90 85 79 74 68 65 72 78 86 90 82 86 68 58 55 53 56 72 76 83 84 85 83 79 79 82 82 83 83 84 85
95 98 100 100 96 96 97 94 91 91 92 87 77 69 52 47 48 52 70 82 84 73 63 59 57 55 52 49 78 89 87 87 86 78 72 84 84 81 82 83 84 84 85
98 99 99 98 99 96 93 92 86 88 83 67 50 35 30 33 36 45 62 62 58 60 60 56 55 55 54 51 75 91 89 88 84 71 73 84 83 82 82 82 83 83 84
97 88 100 100 96 95 93 90 86 80 49 38 30 24 24 30 39 47 50 50 53 61 60 59 58 57 55 52 49 65 78 76 68 52 69 83 86 85 83 82 81 82 83
94 98 100 100 95 88 86 81 73 42 42 42 27 23 28 33 37 42 44 47 51 61 61 59 58 57 57 51 48 37 32 33 34 41 56 70 81 84 82 82 82 81 81
84 88 94 99 95 84 81 71 51 39 44 42 33 33 33 33 35 36 42 52 56 62 62 61 60 60 60 56 51 50 48 46 41 41 40 40 49 59 75 77 77 79 81
96 84 82 89 100 86 71 59 43 46 46 43 35 38 38 34 36 37 39 47 53 58 62 64 66 66 63 58 57 55 53 53 52 50 48 46 46 45 44 43 47 61 72
93 87 86 91 94 98 81 51 47 51 48 41 37 39 38 36 36 37 38 40 47 56 62 64 67 67 67 63 58 58 57 56 57 57 56 58 56 58 53 49 47 46 47
100 90 91 95 96 94 76 68 63 51 42 40 39 38 37 37 37 37 38 38 39 43 50 59 61 60 62 64 66 66 64 60 60 61 61 60 62 63 63 60 56 54 53
100 100 98 91 92 89 81 63 56 52 46 43 42 40 39 38 39 37 37 39 40 39 40 40 41 42 46 46 48 60 68 69 67 63 64 64 63 65 66 66 63 61 60
100 99 100 100 92 88 92 74 50 52 52 46 44 43 42 41 41 39 37 38 38 37 40 40 40 43 46 44 47 52 62 57 58 65 70 69 67 67 67 67 65 64 63
100 100 100 99 100 97 85 77 63 46 53 52 50 46 44 42 40 38 37 36 37 37 38 39 38 38 45 50 43 46 68 55 63 56 61 71 72 70 68 63 62 62 63
100 100 100 100 99 100 98 98 87 55 52 51 46 43 43 44 42 40 36 38 38 40 38 38 39 38 42 50 56 50 46 49 61 47 56 66 67 68 62 57 58 58 57
100 100 100 100 100 99 100 99 99 92 79 60 51 47 42 42 42 42 41 40 42 43 40 40 42 39 39 43 49 56 56 55 54 56 55 51 55 57 56 56 54 54 55
100 100 100 100 100 100 100 99 95 96 98 85 74 57 50 48 49 50 49 51 52 54 58 58 56 50 41 38 42 46 50 55 61 63 72 68 68 55 53 54 55 55 56
Wind_Speed
32 38 32 31 29 27 26 26 23 22 21 21 20 19 19 17 16 15 15 14 12 12 12 12 12 11 11 11 11 12 12 13 14 15 15 14 14 14 14 14 15 13 11
43 42 36 34 31 30 27 27 26 24 24 21 19 18 17 16 14 13 12 11 11 11 11 11 11 11 10 10 10 11 11 12 13 14 14 13 13 12 12 12 11 11 11
42 43 39 36 34 33 28 29 28 26 23 21 20 17 17 15 14 13 12 12 11 11 11 11 10 10 9 9 9 11 11 10 11 14 15 15 13 11 11 12 12 12 10
41 41 40 37 36 36 30 29 27 26 25 23 19 17 16 15 14 13 12 12 12 12 11 11 11 11 11 10 11 12 12 12 16 14 14 13 14 13 13 13 14 16 17
35 39 40 37 36 37 32 29 28 26 24 22 19 17 16 15 14 14 13 13 12 12 12 12 12 12 12 12 13 14 15 16 16 13 11 10 12 12 13 15 17 18 18
32 35 39 38 36 35 32 29 26 26 23 20 18 17 16 15 15 14 14 13 13 12 12 13 13 11 12 14 16 17 16 15 13 10 8 10 13 17 19 18 17 17 18
32 33 36 37 36 35 32 28 28 24 22 19 18 17 17 17 15 15 15 14 13 13 13 15 14 15 18 19 18 17 15 14 14 14 16 19 19 19 19 18 18 17 17
30 31 33 34 35 34 32 31 26 22 20 19 18 18 18 17 16 16 15 14 14 14 15 17 14 17 18 19 20 20 19 18 20 20 19 18 16 15 15 17 16 15 12
27 31 30 33 34 33 34 29 25 21 21 18 19 19 18 17 17 16 15 15 15 16 17 17 18 19 19 20 20 19 19 18 19 19 18 17 16 16 14 14 14 15 12
29 28 30 31 34 35 32 28 25 23 22 21 20 19 19 18 18 16 16 16 17 19 17 17 20 20 19 20 18 17 16 16 17 17 16 16 16 16 13 13 12 12 12
28 29 32 34 34 34 31 28 26 24 23 22 22 21 20 20 19 18 18 19 19 20 18 20 21 21 20 17 15 14 15 16 17 18 16 15 16 12 12 12 13 13 14
29 30 32 37 34 33 31 29 28 27 26 25 23 21 19 18 18 20 20 21 21 19 18 21 21 19 15 13 13 16 19 21 20 18 17 14 11 11 12 13 14 14 14
21 29 26 36 35 35 33 32 30 28 26 23 21 20 19 20 20 22 23 22 22 19 20 21 21 17 14 14 17 20 22 19 18 16 13 13 13 13 14 14 14 14 15
17 10 30 38 35 33 34 33 31 28 25 24 23 21 21 21 22 23 22 22 20 18 21 21 20 19 16 15 16 18 17 15 14 12 15 16 15 14 14 14 14 14 14
13 15 33 38 39 35 34 31 29 28 26 25 23 21 21 22 22 23 21 19 18 18 19 20 19 19 17 15 14 14 14 12 12 14 15 16 16 14 14 13 13 13 13
22 23 2 39 40 36 34 31 29 27 27 23 22 22 21 20 20 20 18 18 18 17 19 19 18 19 17 15 16 14 15 14 14 14 14 14 15 14 13 12 12 11 11
10 6 16 8 41 39 34 31 29 29 26 22 22 21 19 18 18 18 18 18 18 18 19 19 18 17 16 15 15 14 14 13 12 12 12 12 11 11 12 11 11 11 11
20 13 12 14 6 37 35 32 29 27 23 21 21 20 17 18 17 18 19 18 17 17 18 18 18 16 14 13 13 12 12 11 10 10 10 9 9 8 8 8 8 9 9
22 19 21 17 22 11 29 29 26 22 19 19 18 17 17 17 17 17 18 18 17 17 17 17 16 14 14 12 10 10 9 8 7 7 8 8 7 6 6 6 6 6 6
23 25 30 19 15 16 18 20 18 18 17 16 17 16 17 17 17 17 17 17 17 17 16 15 14 13 12 11 10 8 7 6 5 5 5 5 5 4 4 4 4 4 4
20 22 30 30 24 13 9 12 12 11 12 14 15 16 16 16 16 16 17 17 16 15 15 14 15 14 12 10 10 5 5 6 6 6 5 5 4 3 2 0 2 2 3
17 20 21 28 29 23 19 14 7 9 6 11 13 15 15 16 16 16 16 16 16 16 15 15 14 13 8 9 5 4 1 2 6 7 8 7 6 5 4 3 3 2 2
19 24 28 33 37 40 37 30 19 12 5 9 13 15 16 16 16 16 16 17 17 16 16 14 13 12 9 7 6 4 2 2 0 3 7 8 7 6 5 5 6 6 5
15 22 26 30 33 34 39 37 35 30 20 12 15 15 16 15 15 16 16 17 17 17 17 15 14 12 11 10 7 4 4 5 3 1 1 6 7 7 7 7 7 7 7
14 17 24 28 29 29 33 34 30 26 25 20 18 18 19 18 15 15 15 16 16 17 17 17 17 15 12 12 7 6 4 5 5 3 2 2 4 5 7 6 7 7 8
15 17 21 26 26 29 29 29 32 29 28 29 22 18 18 17 16 15 14 14 14 13 12 12 11 11 13 12 10 10 9 5 4 4 2 2 4 3 4 7 8 8 8
Wind_Direction
182 174 175 171 168 164 160 159 154 151 147 144 137 133 131 129 132 133 127 128 124 119 117 119 120 118 118 119 113 107 106 104 99 93 96 97 93 87 83 79 74 72 82
172 173 174 172 170 166 162 162 157 157 153 147 144 140 135 132 130 130 129 127 116 116 116 120 126 134 131 133 122 116 114 110 104 96 91 89 91 86 81 76 72 79 76
168 170 174 172 171 166 165 165 163 159 155 154 146 144 138 135 130 125 122 118 116 114 116 120 124 127 140 144 141 128 120 112 113 106 93 84 80 79 79 69 64 66 66
169 168 172 173 172 166 169 167 162 156 158 153 147 142 138 137 132 127 125 121 117 117 117 115 115 114 114 118 130 134 124 112 120 110 96 81 83 83 79 77 73 69 74
167 170 171 173 171 167 173 166 161 159 158 154 149 144 141 137 134 130 129 126 124 122 120 116 114 112 114 114 117 123 123 118 121 109 91 85 93 94 90 87 79 72 71
170 171 171 173 169 168 171 164 162 157 157 153 151 146 144 141 138 135 133 130 125 122 120 116 112 108 111 115 118 119 120 121 122 116 103 97 105 100 89 84 84 76 66
169 172 173 172 169 169 165 164 160 157 158 158 151 149 146 145 141 137 134 130 125 122 120 117 111 109 111 115 117 119 118 119 119 113 103 99 94 90 88 81 73 68 62
168 172 172 173 169 166 168 165 165 159 154 153 152 151 150 148 143 138 135 131 126 125 124 121 115 117 117 117 119 116 112 111 109 105 99 97 95 87 85 78 70 63 59
170 168 172 174 170 170 166 173 168 156 154 154 154 153 153 149 143 139 137 131 128 127 126 121 119 122 121 123 123 119 116 112 108 101 99 94 93 90 82 72 60 57 56
172 170 174 180 175 170 172 170 161 162 158 156 156 158 159 149 141 139 137 131 129 128 125 123 124 119 125 128 126 124 122 119 110 104 99 98 94 84 81 76 69 65 62
173 179 180 171 168 173 172 166 163 162 157 158 163 164 159 153 150 145 138 134 130 130 125 123 126 129 130 127 128 129 129 124 120 112 106 101 89 88 83 76 74 68 65
175 192 182 172 173 173 170 164 164 161 164 170 167 164 162 158 151 144 140 132 131 130 126 132 132 130 128 127 128 133 126 118 114 112 100 95 94 88 86 83 78 71 66
189 191 179 172 176 174 170 168 167 168 169 166 165 163 161 155 150 146 143 146 145 141 134 138 136 131 124 122 127 130 128 126 126 115 107 96 92 90 87 84 77 71 66
314 308 180 174 175 178 174 172 170 169 168 165 162 162 158 154 151 147 146 146 145 142 140 139 136 128 121 120 132 133 132 128 126 111 105 100 96 92 89 82 78 71 67
324 337 174 173 180 179 176 174 169 169 166 161 159 159 157 152 149 148 150 151 149 145 146 141 137 132 127 122 122 135 134 129 122 116 116 112 103 97 92 87 79 73 67
30 20 261 173 179 179 178 174 170 167 162 160 156 154 157 157 156 156 153 153 154 149 146 144 139 134 129 128 122 121 120 120 119 118 117 114 108 98 93 90 85 81 74
163 322 23 321 181 176 177 173 170 166 166 164 161 160 161 165 162 159 156 151 152 153 147 144 140 136 133 132 127 125 122 119 118 114 110 108 106 104 95 88 81 73 71
157 129 46 12 256 173 173 169 169 166 167 168 166 164 165 164 165 160 157 156 154 157 156 151 146 142 140 140 137 133 131 128 125 122 117 112 102 98 96 91 87 83 75
135 118 88 61 24 104 160 162 163 164 165 166 169 169 168 167 166 165 160 156 156 157 156 156 149 149 145 144 143 142 145 145 140 137 133 122 112 102 94 92 80 69 72
159 127 112 100 37 51 90 129 147 153 156 166 171 170 170 168 167 168 162 160 161 161 158 158 155 148 147 148 157 160 161 166 175 173 162 157 139 116 96 85 79 78 66
157 150 155 148 130 132 55 64 108 128 149 155 166 167 169 171 169 168 165 163 163 165 159 160 150 147 140 154 146 157 171 184 208 218 211 206 193 185 157 129 62 60 57
156 158 149 154 146 171 172 153 111 114 152 167 169 165 168 168 171 171 169 166 166 164 162 164 162 150 137 162 155 131 85 192 208 220 223 223 222 226 236 263 269 292 314
157 159 166 166 159 171 169 158 169 144 145 173 172 170 168 174 173 175 173 172 168 170 167 165 167 167 150 151 166 151 121 209 201 196 224 220 222 226 241 253 261 270 283
178 170 165 171 168 166 170 165 177 168 170 187 180 176 170 175 178 178 178 177 176 175 173 170 167 168 163 156 145 139 138 139 151 38 204 222 213 218 236 240 251 267 272
187 171 171 171 175 177 176 174 173 166 174 171 179 182 176 174 183 184 182 185 184 185 181 178 173 168 160 164 164 154 163 142 154 145 211 273 237 226 229 247 262 278 273
196 190 176 175 178 178 179 179 178 170 174 175 179 181 184 180 184 193 189 191 190 190 191 180 175 169 163 159 170 188 191 164 189 182 137 237 275 261 251 259 265 275 276